Location: Makakahi
(40.6833°S, 175.6000°E)
Time: 19:01:43
(UTC+00:00)

FENGYUN 1C DEB - Pass Details

Date: 13 February 2026
Orbit: 839 x 906 km, 98.9° (Epoch: 9 March)

Event Time Altitude Azimuth Distance (km) Brightness Sun altitude
Rises 08:59:07 0° 165° (SSE) 3,446 ? -17.0°
Reaches altitude 10° 09:01:31 10° 163° (SSE) 2,510 ? -17.4°
Maximum altitude 09:07:05 74° 77° (ENE) 906 ? -18.2°
Drops below altitude 10° 09:12:41 10° 352° (N) 2,520 ? -19.1°
Enters shadow 09:13:06 - 351° (N) 2,678 ? -19.1°
